This is the latest recevied weather packets stored in our database for station/object SQ5AAG-2. If no packets are shown the sender has not sent any weather packets the latest 10 day(s).
| Time | Temp. | Humidity | Pressure | Rain* | Wind** | Luminosity | Snow |
|---|---|---|---|---|---|---|---|
| 1777921246 | 21.11° C | 38% | 996.5 hPa | 0 mm | - | - | - |
| 1777920946 | 21.11° C | 37% | 996.3 hPa | 0 mm | - | - | - |
| 1777920645 | 21.67° C | 38% | 996.3 hPa | 0 mm | - | - | - |
| 1777920345 | 21.67° C | 38% | 996.2 hPa | 0 mm | - | - | - |
| 1777920045 | 21.67° C | 37% | 996.2 hPa | 0 mm | - | - | - |
| 1777919745 | 21.67° C | 36% | 996.2 hPa | 0 mm | - | - | - |
| 1777919444 | 22.22° C | 36% | 996.1 hPa | 0 mm | - | - | - |
| 1777919144 | 22.22° C | 36% | 996.1 hPa | 0 mm | - | - | - |
| 1777918844 | 22.22° C | 36% | 996 hPa | 0 mm | - | - | - |
| 1777918543 | 22.78° C | 35% | 995.9 hPa | 0 mm | - | - | - |
| 1777918243 | 22.78° C | 35% | 995.9 hPa | 0 mm | - | - | - |
| 1777917943 | 23.33° C | 35% | 995.9 hPa | 0 mm | - | - | - |
| 1777917642 | 23.33° C | 34% | 995.9 hPa | 0 mm | - | - | - |
| 1777917342 | 23.89° C | 34% | 995.8 hPa | 0 mm | - | - | - |
| 1777917042 | 23.89° C | 33% | 996.1 hPa | 0 mm | - | - | - |
| 1777916742 | 23.89° C | 33% | 996 hPa | 0 mm | - | - | - |
| 1777916441 | 24.44° C | 32% | 995.9 hPa | 0 mm | - | - | - |
| 1777916141 | 25° C | 32% | 995.9 hPa | 0 mm | - | - | - |
| 1777915841 | 25.56° C | 31% | 996 hPa | 0 mm | - | - | - |
| 1777915540 | 26.11° C | 30% | 995.9 hPa | 0 mm | - | - | - |
| 1777915240 | 26.67° C | 29% | 995.9 hPa | 0 mm | - | - | - |
| 1777914940 | 28.33° C | 29% | 995.9 hPa | 0 mm | - | - | - |
| 1777914640 | 28.33° C | 27% | 995.9 hPa | 0 mm | - | - | - |
| 1777914339 | 28.89° C | 27% | 995.8 hPa | 0 mm | - | - | - |
| 1777914039 | 30° C | 26% | 995.8 hPa | 0 mm | - | - | - |
* Rain latest hour (hover to see other rain measurements)
** Current wind speed in m/s (hover to see current wind gust speed)